Regional Weather Roundup
Issued by NWS Upton, NY

Current Version | Previous Version | Text Only | Print | Product List | Glossary On
Versions: 1 2 3 4 5 6 7 8 9 10 11 12 13 14 15 16 17 18 19 20 21 22 23 24 25 26 27 28 29 30 31 32 33 34 35 36 37 38 39 40 41 42 43 44 45 46 47 48
000 ASUS41 KOKX 280605 RWROKX REGIONAL WEATHER ROUNDUP NATIONAL WEATHER SERVICE NEW YORK NY 100 AM EST FRI NOV 28 2014 NOTE: "FAIR" INDICATES FEW OR NO CLOUDS BELOW 12,000 FEET WITH NO SIGNIFICANT WEATHER AND/OR OBSTRUCTIONS TO VISIBILITY. NYZ071-072-176-178-NJZ106-104-280700- NEW YORK CITY METRO AREA CITY SKY/WX TMP DP RH WIND PRES REMARKS CENTRAL PARK CLEAR 33 23 66 W6 30.08R WCI 28 LAGUARDIA APRT PTCLDY 34 25 69 NW12 30.06R WCI 25 KENNEDY INTL PTCLDY 34 24 67 NW10 30.07S WCI 26 NEWARK/LIBERTY CLEAR 31 23 72 W10 30.08R WCI 22 BRNX BOT. GARD N/A N/A N/A N/A W5 30.06S TETERBORO CLEAR 32 23 69 NW8 30.06R WCI 25 $$ NYZ177-179-078>081-280700- LONG ISLAND NEW YORK CITY SKY/WX TMP DP RH WIND PRES REMARKS FARMINGDALE PTCLDY 35 27 72 N6 30.04F WCI 30 ISLIP CLOUDY 35 27 72 NW12 30.01F WCI 27 SHIRLEY CLOUDY 35 26 69 N12 30.04S WCI 27 WESTHAMPTON CLOUDY 35 25 66 NW10 30.03S WCI 27 MONTAUK POINT N/A 36 29 75 NW14 30.00F WCI 27 $$ NYZ052-065-067-280700- HUDSON VALLEY CITY SKY/WX TMP DP RH WIND PRES REMARKS WHITE PLAINS PTCLDY 31 27 85 NW5 30.02R WCI 26 NEWBURGH PTCLDY 25 25 100 VRB5 30.04 WCI 19 MONTGOMERY CLEAR 28 22 78 W8 30.03F WCI 20 POUGHKEEPSIE FOG 25 23 92 CALM 30.04F VSB 1/4 ALBANY FLURRIES 27 25 92 CALM 30.04F $$ NJZ001-105-106-008-010-013-015-019>022-104-280700- NEW JERSEY CITY SKY/WX TMP DP RH WIND PRES REMARKS NEWARK/LIBERTY CLEAR 31 23 72 W10 30.08R WCI 22 TETERBORO CLEAR 32 23 69 NW8 30.06R WCI 25 CALDWELL CLEAR 30 22 72 CALM 30.08R MORRISTOWN N/A 30 23 74 CALM 30.08S SOMERVILLE CLEAR 25 22 88 CALM 30.08R SUSSEX CLEAR 24 21 88 W3 30.06S ANDOVER N/A 23 21 92 CALM 30.06S TRENTON CLEAR 30 23 75 W3 30.09S MILLVILLE CLEAR 27 25 92 CALM 30.11S ATLANTIC CITY CLEAR 29 25 85 W6 30.11R WCI 23 WRIGHTSTOWN CLEAR 30 24 79 NW6 30.07S WCI 24 TOMS RIVER CLEAR 27 25 93 CALM 30.09S BELMAR CLEAR 30 18 59 W9 30.07R WCI 22 $$ PAZ047>061-062-071-280700- EASTERN PENNSYLVANIA CITY SKY/WX TMP DP RH WIND PRES REMARKS PHILADELPHIA PTCLDY 33 26 75 NW5 30.12F WCI 29 ALLENTOWN CLOUDY 25 22 88 CALM 30.09S SCRANTON FLURRIES 27 21 78 SW6 30.05S WCI 20 $$ CTZ002-004>006-009-010-012-RIZ004-006-007-MAZ004-011-015-280700- SOUTHERN NEW ENGLAND IN CT CITY SKY/WX TMP DP RH WIND PRES REMARKS BRADLEY INTL CLOUDY 32 26 78 N5 30.01F WCI 27 HARTFORD CLOUDY 32 26 78 VRB6 30.02F WCI 26 DANBURY CLOUDY 29 23 78 NW3 30.03F WTRBRY/OXFORD CLOUDY 28 19 69 NW6 30.01F WCI 22 BRIDGEPORT CLOUDY 33 26 75 NW7 30.04S WCI 27 MERIDEN CLOUDY 32 24 72 NW5 30.02F WCI 27 NEW HAVEN CLOUDY 36 25 64 N8 30.02F WCI 30 CHESTER CLOUDY 32 30 93 N8 30.00S WCI 25 GROTON FLURRIES 32 29 88 N9 30.00S WCI 24 WILLIMANTIC CLOUDY 31 27 85 CALM 30.00F IN RI CITY SKY/WX TMP DP RH WIND PRES REMARKS PROVIDENCE CLOUDY 31 27 85 N12 29.99F WCI 22 BLOCK ISLAND CLOUDY 34 27 75 N13 29.97F WCI 25 WESTERLY CLOUDY 32 28 85 N6 29.99F WCI 26 IN MA CITY SKY/WX TMP DP RH WIND PRES REMARKS BOSTON LGT SNOW 30 27 88 NW10 29.99F FOG WCI 21 WORCESTER FLURRIES 26 24 92 NW6 29.95F WCI 19 WESTFIELD CLOUDY 30 27 88 NE3 30.01F PROVINCETOWN CLOUDY 41 34 75 N8 29.95F NANTUCKET CLOUDY 39 36 89 N8 29.92F WCI 33 $$ ANZ330-335-338-340-345-350-353-355-280700- COASTAL MARINE OBSERVATIONS STATION/POSITION TIME SKY/WX TEMP WIND PRES VSBY WAVE AIR SEA DIR/SP/G HT/PER (UTC) (F) (DEG/KT/KT) (MB) (MI) (FT/S) NY HARB ENTRANCE 0600 38 54 310/ 16/ 19 1017.7 3/10 4S FIRE IS 0600 52 N/A 3/11 20S FIRE ISLAND 0600 39 54 340/ 17/ 23 1016.2 5/11 23SW MTP 0600 N/A 4/11 HUDSON CANYON 0600 42 58 320/ 17/ 23 1014.9 6/10 EXECUTION ROCKS 0600 36 47 280/ 10/ 14 N/A WESTERN LI SOUND 0500 35 340/ 10/ 14 N/A 0 CENTRAL LI SOUND 0500 35 50 340/ 16/ 19 N/A 1/ 3 EASTERN LI SOUND 0500 36 52 340/ 12/ 16 N/A ROBBINS REEF 0600 34 310/ 16/ 18 1016.9 $$ >>>>>>>>>>>>>>>>>>>>>>>>>>>> KEY <<<<<<<<<<<<<<<<<<<<<<<<<<< > < > SKY/WX - SKY CONDITION/PRESENT WEATHER < > TMP - TEMPERATURE IN FAHRENHEIT < > DP - DEWPOINT IN FAHRENHEIT < > RH - RELATIVE HUMIDITY IN PERCENT < > WIND - DIRECTION AND SPEED IN MPH < > PRES - MEAN SEA LEVEL PRESSURE IN INCHES OF HG < > WCI - WIND CHILL INDEX < > VSB - VISIBILITY IN MILES < > HX - HEAT INDEX < > TC - TEMPERATURE IN CELSIUS < > VRB - VARIABLE WIND DIRECTION < > < >>>>>>>>>>>>>>>>>>>>>>>>>>>> KEY <<<<<<<<<<<<<<<<<<<<<<<<<<<

USA.gov is the U.S. government's official web portal to all federal, state and local government web resources and services.